Weather History for KFDR - April, 2014

Change the Weather History Date:

Wednesday, April 9, 2014

  Actual Average (KLTS) Record (KLTS)
Temperature  
Mean Temperature 66 °F -  
Max Temperature 89 °F 69 °F 97 °F (2011)
Min Temperature 42 °F 45 °F 26 °F (2003)
Growing Degree Days 16 (Base 50)    
Moisture  
Dew Point 35 °F    
Average Humidity 39    
Maximum Humidity 76    
Minimum Humidity 12    
Precipitation  
Precipitation 0.00 in - - ()
Sea Level Pressure  
Sea Level Pressure 29.99 in    
Wind  
Wind Speed 9 mph (South)    
Max Wind Speed 20 mph    
Max Gust Speed 31 mph    
Visibility 10 miles    
Events      
Averages and records for this station are not official NWS values.
T = Trace of Precipitation, MM = Missing Value Source: NWS Daily Summary

Daily Weather History Graph

Daily Weather History Graph

Search for Another Location

Airport or City:

Trip Planner

Search our weather history database for the weather conditions in past years. The results will help you decide how hot, cold, wet, or windy it might be!

Date:

Astronomy

Apr. 09, 2014 Rise Set
Actual Time 7:12 AM CDT 8:03 PM CDT
Civil Twilight 6:46 AM CDT 8:28 PM CDT
Nautical Twilight 6:16 AM CDT 8:58 PM CDT
Astronomical Twilight 5:45 AM CDT 9:30 PM CDT
Moon 3:05 PM CDT (4/9) 3:49 AM CDT (4/9)
Length of Visible Light 13h 41m
Length of Day
12h 50m
Waxing Gibbous, 72% of the Moon is Illuminated
Apr 9
Waxing Gibbous
Apr 15
Full
Apr 22
Last Quarter
Apr 29
New
May 6
First Quarter

Hourly Weather History & Observations

Time (CDT) Temp. Windchill Dew Point Humidity Pressure Visibility Wind Dir Wind Speed Gust Speed Precip Events Conditions
12:53 AM 46.9 °F - 36.0 °F 66% 30.13 in 10.0 mi South 6.9 mph - N/A   Clear
1:53 AM 48.9 °F - 36.0 °F 61% 30.11 in 10.0 mi South 4.6 mph - N/A   Clear
2:53 AM 46.9 °F - 36.0 °F 66% 30.10 in 10.0 mi South 5.8 mph - N/A   Clear
3:53 AM 45.0 °F - 36.0 °F 71% 30.10 in 10.0 mi Calm Calm - N/A   Clear
4:53 AM 48.0 °F - 35.1 °F 61% 30.10 in 10.0 mi WSW 3.5 mph - N/A   Clear
5:53 AM 44.1 °F 41.5 °F 35.1 °F 71% 30.10 in 10.0 mi ESE 4.6 mph - N/A   Clear
6:53 AM 42.1 °F 38.4 °F 35.1 °F 76% 30.10 in 10.0 mi East 5.8 mph - N/A   Clear
7:53 AM 46.0 °F 42.5 °F 37.0 °F 71% 30.12 in 10.0 mi ESE 6.9 mph - N/A   Clear
8:53 AM 52.0 °F - 39.9 °F 63% 30.12 in 10.0 mi SE 5.8 mph - N/A   Clear
9:53 AM 61.0 °F - 37.9 °F 42% 30.10 in 10.0 mi South 13.8 mph - N/A   Clear
10:53 AM 66.0 °F - 39.0 °F 37% 30.10 in 10.0 mi South 11.5 mph - N/A   Clear
11:53 AM 71.1 °F - 37.9 °F 30% 30.08 in 10.0 mi South 10.4 mph - N/A   Clear
12:53 PM 77.0 °F - 37.9 °F 24% 30.04 in 10.0 mi South 10.4 mph 18.4 mph N/A   Clear
1:53 PM 82.9 °F - 37.0 °F 19% 29.99 in 10.0 mi SSW 15.0 mph 23.0 mph N/A   Clear
2:53 PM 86.0 °F - 34.0 °F 16% 29.94 in 10.0 mi South 18.4 mph 25.3 mph N/A   Clear
3:53 PM 89.1 °F - 30.9 °F 12% 29.89 in 10.0 mi SSW 19.6 mph 28.8 mph N/A   Clear
4:53 PM 89.1 °F - 28.9 °F 12% 29.86 in 10.0 mi South 19.6 mph 29.9 mph N/A   Clear
5:53 PM 88.0 °F - 28.0 °F 12% 29.84 in 10.0 mi South 19.6 mph 31.1 mph N/A   Clear
6:53 PM 86.0 °F - 30.9 °F 14% 29.83 in 10.0 mi South 17.3 mph 23.0 mph N/A   Clear
7:53 PM 80.1 °F - 30.9 °F 17% 29.81 in 10.0 mi SSE 16.1 mph 23.0 mph N/A   Clear
8:53 PM 73.0 °F - 33.1 °F 23% 29.80 in 10.0 mi SE 12.7 mph - N/A   Clear
9:53 PM 72.0 °F - 34.0 °F 25% 29.80 in 10.0 mi SSE 18.4 mph - N/A   Clear
10:53 PM 72.0 °F - 34.0 °F 25% 29.80 in 10.0 mi South 18.4 mph - N/A   Clear
11:53 PM 70.0 °F - 36.0 °F 29% 29.80 in 10.0 mi SSE 17.3 mph - N/A   Clear